When you browse on this site, cookies collect data to enhance your experience and personalize the content and advertising you see.
Visit our Privacy Policy to learn more. By continuing to use the site, you agree to this use of cookies and data.
  • In Spain
  • List of Countries
  • For 7 days
  • Water Temperature
  • Weather Map
  • Weather Widgets
  • user-avatar
    Login

    Hourly Weather Atyrau

    Today, 21 September, Saturday

    Time Temperature Precipitation Wind Pressure Humidity
    00:00 +17°C° 0 mm 5 mps 761 mmHg 33%
    01:00 +17°C° 0 mm 5 mps 760 mmHg 33%
    02:00 +16°C° 0 mm 6 mps 759 mmHg 33%
    03:00 +17°C° 0 mm 4 mps 758 mmHg 33%
    04:00 +16°C° 0 mm 5 mps 758 mmHg 33%
    05:00 +16°C° 0 mm 5 mps 757 mmHg 34%
    06:00 +16°C° 0 mm 5 mps 757 mmHg 34%
    07:00 +17°C° 0 mm 6 mps 757 mmHg 33%
    08:00 +19°C° 0 mm 6 mps 756 mmHg 31%
    09:00 +20°C° 0 mm 8 mps 757 mmHg 32%
    10:00 +18°C° 0 mm 9 mps 757 mmHg 39%
    11:00 +17°C° 0 mm 10 mps 757 mmHg 46%
    12:00 +16°C° 0 mm 11 mps 757 mmHg 53%
    13:00 +15°C° 0.3 mm 9 mps 757 mmHg 60%
    14:00 +14°C° 0.3 mm 7 mps 758 mmHg 67%
    15:00 +13°C° 0.3 mm 5 mps 758 mmHg 74%
    16:00 +13°C° 0.1 mm 5 mps 758 mmHg 72%
    17:00 +13°C° 0.1 mm 5 mps 759 mmHg 70%
    18:00 +14°C° 0.1 mm 5 mps 759 mmHg 69%
    19:00 +13°C° 0 mm 6 mps 759 mmHg 67%
    20:00 +13°C° 0 mm 6 mps 759 mmHg 66%
    21:00 +11°C° 0 mm 7 mps 760 mmHg 65%
    22:00 +11°C° 0 mm 7 mps 760 mmHg 67%
    23:00 +11°C° 0 mm 7 mps 760 mmHg 69%

    Tomorrow, 22 September, Sunday

    Time Temperature Precipitation Wind Pressure Humidity
    00:00 +10°C° 0 mm 7 mps 760 mmHg 71%
    01:00 +10°C° 0 mm 6 mps 760 mmHg 70%
    02:00 +10°C° 0 mm 6 mps 761 mmHg 69%
    03:00 +10°C° 0 mm 6 mps 761 mmHg 68%
    04:00 +10°C° 0 mm 6 mps 761 mmHg 67%
    05:00 +10°C° 0 mm 6 mps 761 mmHg 65%
    06:00 +10°C° 0 mm 6 mps 761 mmHg 64%
    07:00 +11°C° 0 mm 6 mps 761 mmHg 55%
    08:00 +14°C° 0 mm 7 mps 762 mmHg 46%
    09:00 +16°C° 0 mm 7 mps 762 mmHg 37%
    10:00 +17°C° 0 mm 8 mps 762 mmHg 35%
    11:00 +17°C° 0 mm 9 mps 762 mmHg 32%
    12:00 +18°C° 0 mm 9 mps 762 mmHg 30%
    13:00 +18°C° 0 mm 9 mps 762 mmHg 30%
    14:00 +18°C° 0 mm 10 mps 762 mmHg 31%
    15:00 +18°C° 0 mm 10 mps 762 mmHg 31%
    16:00 +17°C° 0 mm 9 mps 762 mmHg 32%
    17:00 +16°C° 0 mm 8 mps 761 mmHg 33%
    18:00 +16°C° 0 mm 6 mps 761 mmHg 34%
    19:00 +16°C° 0 mm 7 mps 761 mmHg 36%
    20:00 +15°C° 0 mm 8 mps 761 mmHg 37%
    21:00 +15°C° 0 mm 9 mps 761 mmHg 39%
    22:00 +16°C° 0 mm 10 mps 760 mmHg 42%
    23:00 +16°C° 0 mm 11 mps 760 mmHg 44%

    Day after tomorrow, 23 September, Monday

    Time Temperature Precipitation Wind Pressure Humidity
    00:00 +15°C° 0 mm 12 mps 760 mmHg 47%
    01:00 +15°C° 0 mm 13 mps 759 mmHg 51%
    02:00 +15°C° 0 mm 13 mps 759 mmHg 56%
    03:00 +15°C° 0 mm 13 mps 759 mmHg 60%
    04:00 +15°C° 0.1 mm 13 mps 759 mmHg 60%
    05:00 +15°C° 0.1 mm 12 mps 759 mmHg 61%
    06:00 +15°C° 0.1 mm 12 mps 759 mmHg 61%
    07:00 +15°C° 0.2 mm 12 mps 760 mmHg 60%
    08:00 +17°C° 0.2 mm 12 mps 760 mmHg 59%
    09:00 +17°C° 0.2 mm 13 mps 761 mmHg 58%
    10:00 +15°C° 0.2 mm 12 mps 761 mmHg 54%
    11:00 +14°C° 0.2 mm 11 mps 762 mmHg 51%
    12:00 +13°C° 0.2 mm 9 mps 762 mmHg 48%
    13:00 +15°C° 0 mm 9 mps 762 mmHg 40%
    14:00 +16°C° 0 mm 9 mps 763 mmHg 33%
    15:00 +17°C° 0 mm 9 mps 763 mmHg 26%
    16:00 +16°C° 0 mm 8 mps 763 mmHg 26%
    17:00 +15°C° 0 mm 6 mps 763 mmHg 25%
    18:00 +14°C° 0 mm 5 mps 764 mmHg 25%
    19:00 +14°C° 0 mm 5 mps 764 mmHg 29%
    20:00 +13°C° 0 mm 5 mps 765 mmHg 32%
    21:00 +13°C° 0 mm 5 mps 765 mmHg 36%
    22:00 +12°C° 0 mm 4 mps 765 mmHg 40%
    23:00 +11°C° 0 mm 3 mps 766 mmHg 43%

    24 September, Tuesday

    Time Temperature Precipitation Wind Pressure Humidity
    00:00 +10°C° 0 mm 3 mps 766 mmHg 47%
    01:00 +10°C° 0 mm 3 mps 766 mmHg 48%
    02:00 +9°C° 0 mm 2 mps 766 mmHg 49%
    03:00 +8°C° 0 mm 2 mps 767 mmHg 50%
    04:00 +8°C° 0 mm 2 mps 767 mmHg 50%
    05:00 +9°C° 0 mm 1 mps 767 mmHg 50%
    06:00 +9°C° 0 mm 1 mps 767 mmHg 50%
    07:00 +10°C° 0 mm 1 mps 767 mmHg 46%
    08:00 +12°C° 0 mm 1 mps 768 mmHg 41%
    09:00 +13°C° 0 mm 1 mps 768 mmHg 36%
    10:00 +14°C° 0 mm 1 mps 768 mmHg 33%
    11:00 +14°C° 0 mm 1 mps 768 mmHg 29%
    12:00 +15°C° 0 mm 1 mps 768 mmHg 26%
    13:00 +16°C° 0 mm 2 mps 767 mmHg 25%
    14:00 +16°C° 0 mm 2 mps 767 mmHg 25%
    15:00 +16°C° 0 mm 3 mps 767 mmHg 24%
    16:00 +16°C° 0 mm 3 mps 767 mmHg 27%
    17:00 +15°C° 0 mm 2 mps 767 mmHg 29%
    18:00 +14°C° 0 mm 2 mps 767 mmHg 31%
    19:00 +13°C° 0 mm 2 mps 767 mmHg 34%
    20:00 +13°C° 0 mm 2 mps 767 mmHg 36%
    21:00 +12°C° 0 mm 1 mps 767 mmHg 38%
    22:00 +12°C° 0 mm 1 mps 767 mmHg 40%
    23:00 +11°C° 0 mm 1 mps 767 mmHg 42%

    25 September, Wednesday

    Time Temperature Precipitation Wind Pressure Humidity
    00:00 +11°C° 0 mm 1 mps 767 mmHg 44%
    01:00 +11°C° 0 mm 1 mps 767 mmHg 42%
    02:00 +9°C° 0 mm 2 mps 767 mmHg 41%
    03:00 +9°C° 0 mm 2 mps 767 mmHg 40%
    04:00 +9°C° 0 mm 2 mps 767 mmHg 39%
    05:00 +9°C° 0 mm 2 mps 767 mmHg 38%
    06:00 +9°C° 0 mm 2 mps 767 mmHg 36%
    07:00 +12°C° 0 mm 2 mps 767 mmHg 32%
    08:00 +14°C° 0 mm 2 mps 767 mmHg 28%
    09:00 +15°C° 0 mm 2 mps 768 mmHg 23%
    10:00 +16°C° 0 mm 2 mps 768 mmHg 22%
    11:00 +16°C° 0 mm 2 mps 768 mmHg 21%
    12:00 +17°C° 0 mm 2 mps 768 mmHg 19%
    13:00 +17°C° 0 mm 2 mps 767 mmHg 19%
    14:00 +18°C° 0 mm 2 mps 767 mmHg 19%
    15:00 +18°C° 0 mm 2 mps 767 mmHg 18%
    16:00 +17°C° 0 mm 2 mps 767 mmHg 19%
    17:00 +17°C° 0 mm 3 mps 767 mmHg 20%
    18:00 +16°C° 0 mm 3 mps 767 mmHg 21%
    19:00 +14°C° 0 mm 4 mps 767 mmHg 22%
    20:00 +14°C° 0 mm 4 mps 768 mmHg 24%
    21:00 +13°C° 0 mm 4 mps 768 mmHg 25%
    22:00 +13°C° 0 mm 4 mps 768 mmHg 26%
    23:00 +12°C° 0 mm 4 mps 768 mmHg 28%

    26 September, Thursday

    Time Temperature Precipitation Wind Pressure Humidity
    00:00 +12°C° 0 mm 4 mps 768 mmHg 29%
    01:00 +11°C° 0 mm 4 mps 768 mmHg 30%
    02:00 +10°C° 0 mm 5 mps 768 mmHg 32%
    03:00 +9°C° 0 mm 5 mps 768 mmHg 33%
    04:00 +9°C° 0 mm 5 mps 768 mmHg 34%
    05:00 +9°C° 0 mm 5 mps 768 mmHg 35%
    06:00 +9°C° 0 mm 5 mps 768 mmHg 35%
    07:00 +10°C° 0 mm 6 mps 768 mmHg 32%
    08:00 +13°C° 0 mm 6 mps 768 mmHg 28%
    09:00 +15°C° 0 mm 6 mps 768 mmHg 24%
    10:00 +16°C° 0 mm 6 mps 768 mmHg 22%
    11:00 +17°C° 0 mm 6 mps 768 mmHg 21%
    12:00 +19°C° 0 mm 6 mps 768 mmHg 19%
    13:00 +19°C° 0 mm 6 mps 767 mmHg 19%
    14:00 +19°C° 0 mm 6 mps 767 mmHg 19%
    15:00 +19°C° 0 mm 6 mps 767 mmHg 19%
    16:00 +17°C° 0 mm 5 mps 767 mmHg 20%
    17:00 +16°C° 0 mm 5 mps 767 mmHg 21%
    18:00 +15°C° 0 mm 5 mps 767 mmHg 22%
    19:00 +15°C° 0 mm 5 mps 767 mmHg 23%
    20:00 +15°C° 0 mm 6 mps 767 mmHg 25%
    21:00 +14°C° 0 mm 6 mps 768 mmHg 26%
    22:00 +14°C° 0 mm 6 mps 768 mmHg 28%
    23:00 +13°C° 0 mm 6 mps 767 mmHg 29%
    Show more